轨道通信卫星FM32星 (ORBCOMM FM32)

导读

ORBCOMM FM 32是ORBCOMM(轨道通信公司)低轨卫星星座中的成员,1999年12月4日发射入轨。该卫星隶属于全球近地轨道小型卫星移动通信系统,主要提供全球短数据通信、资产跟踪与定位服务,支持远程监测、物联网连接等应用,是早期低轨卫星通信网络布局的重要组成,为偏远地区数据传输提供了低成本解决方案。

Basic Information
目录编号:
25982
目录名称:
ORBCOMM FM 32
国际标识:
1999-065C
轨道中心:
EARTH
卫星名称:
轨道通信卫星FM32星
卫星全名:
轨道通信卫星FM32星 (ORBCOMM FM32)
卫星状态:
在轨 (已飞行9782 天)
发射日期:
1999-12-04 UTC
国别 :
(ORB)
星等 :
--
This satellite is enrolled in the Space Conjunction Data Service (SCDS) and the current flight risk assessment level is: No High Risk
Orbit Information
数据来源 国际轨道数据 AOE轨道数据
星历时间 2026-09-15T22:06:30+0800
7小时前
查看轨道信息
2026-09-13T16:00:00+0800
2天前
查看轨道信息
半长轴 7145.771km 7145.774km
偏心率 0.0006119 0.0005918
轨道倾角 45.015° 45.014°
近地点辐角 142.618° 129.978°
升交点赤经 105.299° 115.974°
平近点角 217.510° 73.900°
近地点 763.261km 763.408km
远地点 772.007km 771.866km
周期 100.192分钟 100.192分钟
每日圈数 14.372395 14.372387
Detailed Information
固有亮度:
8
最大亮度:
6.9
平衡模式:
三轴稳定
覆盖范围:
全球
运营商:
轨道通信公司
运营商所在国:
美国
制造商(研发单位):
轨道ATK公司
制造商所在国:
美国
使用方式:
暂无
Satellite Introduction
轨道通信FM(Orbcomm FM)是一系列低地球轨道通信卫星,由美国卫星通信公司 Orbcomm运营。 截至2015年12月,已有63颗此类卫星绕地球运行。该卫星仍在工作。
2D Orbit Map
3D Orbit Map
Orbit Altitude Analysis Chart
Orbit Inclination Analysis Chart
Orbit Comprehensive Analysis Chart
View Comprehensive Chart
Conjunction Data List
Event ID Objects TCA Miss Dist (km) Collision Risk Probability Collision Risk Index (CRI) Action
CDM_260908-215902-598204-182226
2026-09-08T
21:59:35+0000
1.289 km
极远距离
1.089723E-5 中风险 0.56
CDM_260916-083102-598205-451625
2026-09-16T
08:31:38+0000
1.384 km
极远距离
8.510946E-6 低风险 0.54
CDM_260917-051202-598203-053924
2026-09-17T
05:12:27+0000
1.493 km
极远距离
6.592812E-6 低风险 0.51
Miss Distance Evolution Trend with All Objects Subscribe to Flight Safety Assessment
Collision Probability Evolution Trend with All Objects Subscribe to Flight Safety Assessment